Location: Oakley
(37.9974°N, 121.7125°W)
Time: 03:05:13
(UTC+00:00)

NOSS 3-1 (A) - Pass Details

Date: 13 February 2026
Orbit: 613 x 1593 km, 63.4° (Epoch: 10 January)

Event Time Altitude Azimuth Distance (km) Brightness Sun altitude
Exits shadow 13:25:18 - 199° (SSW) 2,856 5.8 -19.0°
Reaches altitude 10° 13:27:27 10° 195° (SSW) 1,989 5.0 -18.6°
Maximum altitude 13:31:45 55° 118° (ESE) 807 3.4 -17.7°
Drops below altitude 10° 13:36:43 10° 41° (NE) 2,298 6.0 -16.8°
Sets 13:39:23 0° 37° (NE) 3,362 6.8 -16.2°
